Location: Bittelbronn
(48.4454°N, 8.5870°E)
Time: 12:23:22
(UTC+00:00)

SJ 16-02 - Pass Details

Date: 26 April 2025
Orbit: 587 x 597 km, 75.0° (Epoch: 15 May)

Event Time Altitude Azimuth Distance (km) Brightness Sun altitude
Rises 19:09:26 0° 336° (NNW) 2,851 5.7 -6.3°
Reaches altitude 10° 19:11:41 10° 333° (NNW) 1,945 4.9 -6.6°
Maximum altitude 19:15:58 63° 253° (WSW) 670 1.8 -7.2°
Drops below altitude 10° 19:20:13 10° 172° (S) 1,931 3.5 -7.8°
Sets 19:22:27 0° 169° (S) 2,829 4.3 -8.1°
Enters shadow 19:22:32 - 169° (S) 2,861 4.4 -8.1°
